Regional Weather Roundup
Issued by NWS

Home | Current Version | Previous Version | Text Only | Print | Product List | Glossary On
Versions: 1 2 3 4 5 6 7 8 9 10 11 12 13 14 15 16 17 18 19 20 21 22 23 24 25 26 27 28 29 30 31 32 33 34 35 36 37 38 39 40 41 42 43 44 45 46 47 48 49 50
000
ASUS46 KPQR 301210
RWROR

OREGON REGIONAL WEATHER ROUNDUP
NATIONAL WEATHER SERVICE PORTLAND OR
500 AM PDT TUE MAY 30 2017

NOTE: "FAIR" INDICATES FEW OR NO CLOUDS BELOW 12,000 FEET WITH
NO SIGNIFICANT WEATHER AND/OR OBSTRUCTIONS TO VISIBILITY.

ORZ001>013-301300-
NORTHWEST OREGON


CITY           SKY/WX    TMP DP  RH WIND       PRES   REMARKS
ASTORIA        CLOUDY    52  49  89 CALM      29.99S
6HR MIN TEMP:  52; 6HR MAX TEMP:  53; 6HR PCP: TRACE;

NEWPORT        CLOUDY    52  50  93 CALM      30.04R
PORTLAND       CLOUDY    56  50  80 N5        29.97S
6HR MIN TEMP:  55; 6HR MAX TEMP:  59;

VANCOUVER WA   CLOUDY    56  51  84 NW7       29.96S
6HR MIN TEMP:  56; 6HR MAX TEMP:  59;

SCAPPOOSE      CLOUDY    55  50  83 N6        29.96R
6HR MIN TEMP:  55; 6HR MAX TEMP:  56;

HILLSBORO      CLOUDY    56  52  86 CALM      29.96S
6HR MIN TEMP:  56; 6HR MAX TEMP:  62;

AURORA         CLOUDY    55  51  86 S7        29.98R
6HR MIN TEMP:  56; 6HR MAX TEMP:  59;

MCMINNVILLE    CLOUDY    54  50  86 SW6       29.98R
6HR MIN TEMP:  52; 6HR MAX TEMP:  55;

SALEM          CLOUDY    54  51  90 CALM      29.97S
6HR MIN TEMP:  54; 6HR MAX TEMP:  55;

CORVALLIS      CLOUDY    54  48  82 CALM      30.00R
EUGENE         CLOUDY    51  51 100 SW7       30.00R FOG
6HR MIN TEMP:  51; 6HR MAX TEMP:  55;

$$

ORZ021-028-301300-
SOUTHWEST OREGON


CITY           SKY/WX    TMP DP  RH WIND       PRES   REMARKS
NORTH BEND     CLOUDY    54  52  94 CALM      30.04F
6HR MIN TEMP:  52; 6HR MAX TEMP:  54; 6HR PCP:  0.02;

BROOKINGS      CLOUDY    51  50  96 CALM      30.02F
ROSEBURG       CLOUDY    53  51  93 VRB5      30.00F FOG
6HR MIN TEMP:  53; 6HR MAX TEMP:  59;

SEXTON SUMMIT  FOG       48  48 100 N9        29.98S VSB 1/4
6HR MIN TEMP:  48; 6HR MAX TEMP:  57;

MEDFORD        CLEAR     59  57  93 CALM      29.92R
6HR MIN TEMP:  59; 6HR MAX TEMP:  68;

$$

ORZ014>016-041-301300-
COLUMBIA GORGE


CITY           SKY/WX    TMP DP  RH WIND       PRES   REMARKS
TROUTDALE      CLOUDY    57  51  80 W5        29.97R
6HR MIN TEMP:  57; 6HR MAX TEMP:  61;

THE DALLES     PTCLDY    64  57  78 NW15G21   29.83S
6HR MIN TEMP:  64; 6HR MAX TEMP:  72;

$$

ORZ029>031-041-044-049-050-061>064-502-503-505>511-301300-
EASTERN OREGON


CITY           SKY/WX    TMP DP  RH WIND       PRES   REMARKS
REDMOND        CLEAR     52  42  69 S5        29.92F
6HR MIN TEMP:  52; 6HR MAX TEMP:  67;

BEND           CLEAR     54  43  66 SW6       29.89F
PRINEVILLE     CLEAR     52  45  76 CALM      29.94F
KLAMATH FALLS  CLEAR     45  43  93 E5        29.99R
6HR MIN TEMP:  45; 6HR MAX TEMP:  64;

HERMISTON      CLEAR     62  50  64 CALM      29.81S
6HR MIN TEMP:  60; 6HR MAX TEMP:  75;

PENDLETON      CLEAR     56  48  74 E9        29.85F
6HR MIN TEMP:  56; 6HR MAX TEMP:  67;

JOHN DAY       CLEAR     55  33  44 E7        30.01S
MEACHAM        CLEAR     45  40  82 CALM      30.00F
6HR MIN TEMP:  45; 6HR MAX TEMP:  55;

LA GRANDE      CLEAR     48  41  76 CALM      29.98S
6HR MIN TEMP:  48; 6HR MAX TEMP:  64;

BAKER CITY     CLEAR     42  41  96 CALM      30.02S
6HR MIN TEMP:  39; 6HR MAX TEMP:  59;

BURNS          CLEAR     46  36  68 NE8       30.01F
6HR MIN TEMP:  43; 6HR MAX TEMP:  55;

ROME             N/A     58  36  43 NE9       29.99F
6HR MIN TEMP:  54; 6HR MAX TEMP:  63;

ONTARIO        CLEAR     53  42  66 W3        29.97R
6HR MIN TEMP:  52; 6HR MAX TEMP:  67;

$$



USA.gov is the U.S. government's official web portal to all federal, state and local government web resources and services.